Regional Weather Roundup
Issued by NWS

Home | Current Version | Previous Version | Text Only | Print | Product List | Glossary On
Versions: 1 2 3 4 5 6 7 8 9 10 11 12 13 14 15 16 17 18 19 20 21 22 23 24 25 26 27 28 29 30 31 32 33 34 35 36 37 38 39 40 41 42 43 44 45 46 47 48 49 50
000
ASUS43 KLSX 051259
RWRMO

WEATHER SUMMARY FOR MISSOURI
NATIONAL WEATHER SERVICE SPRINGFIELD MO
700 AM CST THU MAR 05 2015

NOTE: "FAIR" INDICATES FEW OR NO CLOUDS BELOW 12,000 FEET WITH NO
       SIGNIFICANT WEATHER AND/OR OBSTRUCTIONS TO VISIBILITY.
       CURRENT SKY AND/OR WEATHER CONDITIONS ARE NOT AVAILABLE FOR
       CHILLICOTHE AND FARMINGTON.

MOZ001>031-035>038-043-044-053-054-051400-
...NORTHERN AND WESTERN MISSOURI...

CITY           SKY/WX    TMP DP  RH WIND       PRES   REMARKS
KANSAS CTY INT CLEAR      7  -1  70 N6        30.54R WCI  -3
KANSAS C DTWN  CLEAR     11   1  64 N6        30.56R WCI   1
LEE`S SUMMIT   CLEAR     11  -2  56 N8        30.53R WCI  -1
ST JOSEPH      CLEAR      4  -2  76 NW3       30.57R
CHILLICOTHE      N/A      8  -2  63 NW6       30.55R WCI  -2

$$
MOZ066>068-077>081-088>096-101>105-051400-
...SOUTHWEST MISSOURI...

CITY           SKY/WX    TMP DP  RH WIND       PRES   REMARKS
SPRINGFIELD    CLEAR     13   6  74 N8        30.45R WCI   2
JOPLIN         CLEAR     14   8  77 CALM      30.51R

$$
MOZ032>034-039>042-045>050-055>058-069>072-051400-
...CENTRAL MISSOURI...

CITY           SKY/WX    TMP DP  RH WIND       PRES   REMARKS
COLUMBIA       CLEAR     13   6  74 NW8       30.48R WCI   2
JEFFERSON CITY CLEAR     17   5  59 NW7       30.51R WCI   8
ROLLA          CLEAR     16   7  67 NW9       30.42R WCI   4
SEDALIA        CLEAR     13   4  67 NW7       30.52R WCI   3
OSAGE BEACH    CLEAR     16   0  48 NW6       30.48R WCI   7

$$
MOZ051-052-059>065-051400-
...EAST CENTRAL MISSOURI...

CITY           SKY/WX    TMP DP  RH WIND       PRES   REMARKS
ST LOUIS INTL  MOCLDY    17   3  54 N9        30.48R WCI   6
SPIRIT OF STL  MOCLDY    16   5  62 NE6       30.48R WCI   7
ST CHARLES     PTCLDY    14   3  61 N7        30.49R WCI   4

$$
MOZ072>076-082>087-097>100-106>115-051400-
...SOUTH CENTRAL AND SOUTHEAST MISSOURI...

CITY           SKY/WX    TMP DP  RH WIND       PRES   REMARKS
CAPE GIRARDEAU CLOUDY    20  10  65 N10       30.43F WCI   9
FARMINGTON     CLOUDY    18   7  62 N6        30.43S WCI   9
POPLAR BLUFF   CLOUDY    22   7  52 N13       30.44R WCI  10
WEST PLAINS    MOCLDY    16   5  62 NW5       30.42R WCI   9

$$



USA.gov is the U.S. government's official web portal to all federal, state and local government web resources and services.